Location: Kunchanapalle
(16.4623°N, 80.6176°E)
Time: 10:09:52
(UTC+00:00)

Cosmos 1980 Rocket - Pass Details

Date: 13 August 2020
Orbit: 829 x 850 km, 71.0° (Epoch: 18 September)

Event Time Altitude Azimuth Distance (km) Brightness Sun altitude
Rises 16:03:50 0° 340° (NNW) 3,389 6.0 -40.2°
Reaches altitude 10° 16:06:18 10° 338° (NNW) 2,450 5.1 -40.7°
Enters shadow 16:07:43 18° 336° (NNW) 1,925 4.5 -40.9°
